Time,TemperatureF,DewpointF,PressureIn,WindDirection,WindDirectionDegrees,WindSpeedMPH,WindSpeedGustMPH,Humidity,HourlyPrecipIn,Conditions,Clouds,dailyrainin,SoftwareType,DateUTC
2013-05-10 00:01:00,59.2,51.8,29.91,West,270,0.0,0.0,76,0.00,,,-99.99,perl,2013-05-10 04:01:00,
2013-05-10 00:03:00,59.2,51.8,29.91,West,269,0.0,0.0,76,0.00,,,-99.99,perl,2013-05-10 04:03:00,
2013-05-10 00:06:00,59.0,51.8,29.91,West,270,0.0,0.0,76,0.00,,,-99.99,perl,2013-05-10 04:06:00,
2013-05-10 00:11:00,58.8,51.8,29.91,West,270,0.0,0.0,77,0.00,,,-99.99,perl,2013-05-10 04:11:00,
2013-05-10 00:12:00,58.8,51.8,29.91,West,269,0.0,0.0,77,0.00,,,-99.99,perl,2013-05-10 04:12:00,
2013-05-10 00:13:00,58.6,51.8,29.91,West,269,0.0,0.0,78,0.00,,,-99.99,perl,2013-05-10 04:13:00,
2013-05-10 00:18:00,58.5,51.8,29.91,West,269,0.0,0.0,78,0.00,,,-99.99,perl,2013-05-10 04:18:00,
2013-05-10 00:23:00,58.5,51.8,29.91,West,270,0.0,0.0,78,0.00,,,-99.99,perl,2013-05-10 04:23:00,
2013-05-10 00:28:00,58.3,51.8,29.91,West,269,0.0,0.0,78,0.00,,,-99.99,perl,2013-05-10 04:28:00,
2013-05-10 00:33:00,58.3,51.8,29.94,West,269,0.0,0.0,78,0.00,,,-99.99,perl,2013-05-10 04:33:00,
2013-05-10 00:38:00,58.3,53.6,29.94,West,269,0.0,0.0,84,0.00,,,-99.99,perl,2013-05-10 04:38:00,
2013-05-10 00:43:00,58.1,53.6,29.94,West,269,0.0,0.0,85,0.00,,,-99.99,perl,2013-05-10 04:43:00,
2013-05-10 00:48:00,57.9,51.8,29.91,West,270,0.0,0.0,80,0.00,,,-99.99,perl,2013-05-10 04:48:00,
2013-05-10 00:53:00,57.9,51.8,29.91,West,269,0.0,0.0,80,0.00,,,-99.99,perl,2013-05-10 04:53:00,
2013-05-10 00:58:00,57.7,51.8,29.91,West,270,0.0,0.0,81,0.00,,,-99.99,perl,2013-05-10 04:58:00,
2013-05-10 01:03:00,57.7,51.8,29.94,West,269,0.0,0.0,81,0.00,,,-99.99,perl,2013-05-10 05:03:00,
2013-05-10 01:08:00,57.7,51.8,29.94,West,270,0.0,0.0,81,0.00,,,-99.99,perl,2013-05-10 05:08:00,
2013-05-10 01:13:00,57.6,51.8,29.94,West,269,0.0,0.0,81,0.00,,,-99.99,perl,2013-05-10 05:13:00,
2013-05-10 01:18:00,57.4,51.8,29.91,West,269,0.0,0.0,81,0.00,,,-99.99,perl,2013-05-10 05:18:00,
2013-05-10 01:23:00,57.2,51.8,29.91,West,269,0.0,0.0,82,0.00,,,-99.99,perl,2013-05-10 05:23:00,
2013-05-10 01:28:00,57.0,53.6,29.91,West,269,0.0,0.0,89,0.00,,,-99.99,perl,2013-05-10 05:28:00,
2013-05-10 01:34:00,56.8,53.6,29.91,West,269,0.0,0.0,89,0.00,,,-99.99,perl,2013-05-10 05:34:00,
2013-05-10 01:39:00,57.0,53.6,29.91,West,269,0.0,0.0,89,0.00,,,-99.99,perl,2013-05-10 05:39:00,
2013-05-10 01:44:00,57.0,53.6,29.91,West,270,0.0,0.0,89,0.00,,,-99.99,perl,2013-05-10 05:44:00,
2013-05-10 01:49:00,56.8,53.6,29.91,West,269,0.0,0.0,89,0.00,,,-99.99,perl,2013-05-10 05:49:00,
2013-05-10 01:54:00,56.8,53.6,29.91,West,269,0.0,0.0,89,0.00,,,-99.99,perl,2013-05-10 05:54:00,
2013-05-10 01:59:00,56.7,53.6,29.91,West,269,0.0,0.0,89,0.00,,,-99.99,perl,2013-05-10 05:59:00,
2013-05-10 02:04:00,56.7,53.6,29.91,West,269,0.0,0.0,89,0.00,,,-99.99,perl,2013-05-10 06:04:00,
2013-05-10 02:09:00,56.5,53.6,29.91,West,270,0.0,0.0,90,0.00,,,-99.99,perl,2013-05-10 06:09:00,
2013-05-10 02:14:00,56.5,53.6,29.91,West,269,0.0,0.0,90,0.00,,,-99.99,perl,2013-05-10 06:14:00,
2013-05-10 02:19:00,56.5,53.6,29.91,West,269,0.0,0.0,90,0.00,,,-99.99,perl,2013-05-10 06:19:00,
2013-05-10 02:24:00,56.5,53.6,29.91,West,269,0.0,0.0,90,0.00,,,-99.99,perl,2013-05-10 06:24:00,
2013-05-10 02:29:00,56.5,53.6,29.91,West,269,0.0,0.0,90,0.00,,,-99.99,perl,2013-05-10 06:29:00,
2013-05-10 02:34:00,56.5,53.6,29.91,West,270,0.0,0.0,90,0.00,,,-99.99,perl,2013-05-10 06:34:00,
2013-05-10 02:39:00,56.3,53.6,29.91,West,269,0.0,0.0,91,0.00,,,-99.99,perl,2013-05-10 06:39:00,
2013-05-10 02:44:00,56.3,53.6,29.91,West,269,0.0,0.0,91,0.00,,,-99.99,perl,2013-05-10 06:44:00,
2013-05-10 02:49:00,56.5,55.4,29.91,West,269,0.0,0.0,96,0.00,,,-99.99,perl,2013-05-10 06:49:00,
2013-05-10 02:54:00,56.5,55.4,29.91,West,269,0.0,0.0,96,0.00,,,-99.99,perl,2013-05-10 06:54:00,
2013-05-10 02:59:00,56.5,55.4,29.91,West,269,0.0,0.0,96,0.00,,,-99.99,perl,2013-05-10 06:59:00,
2013-05-10 03:04:00,56.3,55.4,29.91,West,269,0.0,0.0,97,0.00,,,-99.99,perl,2013-05-10 07:04:00,
2013-05-10 03:09:00,56.1,53.6,29.91,West,270,0.0,0.0,92,0.00,,,-99.99,perl,2013-05-10 07:09:00,
2013-05-10 03:14:00,56.1,53.6,29.91,West,269,0.0,0.0,92,0.00,,,-99.99,perl,2013-05-10 07:14:00,
2013-05-10 03:19:00,55.9,53.6,29.91,West,269,0.0,0.0,92,0.00,,,-99.99,perl,2013-05-10 07:19:00,
2013-05-10 03:25:00,55.9,53.6,29.91,West,270,0.0,0.0,92,0.00,,,-99.99,perl,2013-05-10 07:25:00,
2013-05-10 03:30:00,55.8,53.6,29.91,West,269,0.0,0.0,92,0.00,,,-99.99,perl,2013-05-10 07:30:00,
2013-05-10 03:35:00,55.6,53.6,29.91,West,270,0.0,0.0,93,0.00,,,-99.99,perl,2013-05-10 07:35:00,
2013-05-10 03:40:00,55.6,53.6,29.91,West,269,0.0,0.0,93,0.00,,,-99.99,perl,2013-05-10 07:40:00,
2013-05-10 03:45:00,55.4,53.6,29.91,West,269,0.0,0.0,94,0.00,,,-99.99,perl,2013-05-10 07:45:00,
2013-05-10 03:50:00,55.4,53.6,29.91,West,269,0.0,0.0,94,0.00,,,-99.99,perl,2013-05-10 07:50:00,
2013-05-10 03:55:00,55.4,53.6,29.91,West,269,0.0,0.0,94,0.00,,,-99.99,perl,2013-05-10 07:55:00,
2013-05-10 04:00:00,55.4,53.6,29.91,West,270,0.0,0.0,94,0.00,,,-99.99,perl,2013-05-10 08:00:00,
2013-05-10 04:05:00,55.2,53.6,29.91,West,268,0.0,0.0,95,0.00,,,-99.99,perl,2013-05-10 08:05:00,
2013-05-10 04:10:00,55.4,53.6,29.91,West,268,0.0,0.0,94,0.00,,,-99.99,perl,2013-05-10 08:10:00,
2013-05-10 04:15:00,55.4,53.6,29.91,West,269,0.0,0.0,94,0.00,,,-99.99,perl,2013-05-10 08:15:00,
2013-05-10 04:21:00,55.2,53.6,29.91,West,270,0.0,0.0,95,0.00,,,-99.99,perl,2013-05-10 08:21:00,
2013-05-10 04:26:00,55.2,53.6,29.91,West,269,0.0,0.0,95,0.00,,,-99.99,perl,2013-05-10 08:26:00,
2013-05-10 04:31:00,55.0,53.6,29.91,West,269,0.0,0.0,96,0.00,,,-99.99,perl,2013-05-10 08:31:00,
2013-05-10 04:36:00,55.0,53.6,29.91,West,270,0.0,0.0,96,0.00,,,-99.99,perl,2013-05-10 08:36:00,
2013-05-10 04:41:00,55.0,53.6,29.91,West,270,0.0,0.0,96,0.00,,,-99.99,perl,2013-05-10 08:41:00,
2013-05-10 04:47:00,54.9,53.6,29.91,West,270,0.0,0.0,96,0.00,,,-99.99,perl,2013-05-10 08:47:00,
2013-05-10 04:53:00,54.9,53.6,29.91,West,270,0.0,0.0,96,0.00,,,-99.99,perl,2013-05-10 08:53:00,
2013-05-10 04:59:00,54.7,53.6,29.91,West,270,0.0,0.0,96,0.00,,,-99.99,perl,2013-05-10 08:59:00,
2013-05-10 05:04:00,54.7,53.6,29.91,West,269,0.0,0.0,96,0.00,,,-99.99,perl,2013-05-10 09:04:00,
2013-05-10 05:09:00,54.7,53.6,29.91,West,269,0.0,0.0,96,0.00,,,-99.99,perl,2013-05-10 09:09:00,
2013-05-10 05:16:00,54.7,53.6,29.91,West,269,0.0,0.0,96,0.00,,,-99.99,perl,2013-05-10 09:16:00,
2013-05-10 05:22:00,54.5,53.6,29.91,West,268,0.0,0.0,97,0.00,,,-99.99,perl,2013-05-10 09:22:00,
2013-05-10 05:27:00,54.5,53.6,29.91,West,269,0.0,0.0,97,0.00,,,-99.99,perl,2013-05-10 09:27:00,
2013-05-10 05:32:00,54.3,51.8,29.91,West,270,0.0,0.0,91,0.00,,,-99.99,perl,2013-05-10 09:32:00,
2013-05-10 05:37:00,54.1,51.8,29.91,West,269,0.0,0.0,92,0.00,,,-99.99,perl,2013-05-10 09:37:00,
2013-05-10 05:42:00,54.1,51.8,29.91,West,269,0.0,0.0,92,0.00,,,-99.99,perl,2013-05-10 09:42:00,
2013-05-10 05:47:00,54.0,51.8,29.91,West,269,0.0,0.0,92,0.00,,,-99.99,perl,2013-05-10 09:47:00,
2013-05-10 05:53:00,53.8,51.8,29.91,West,270,0.0,0.0,92,0.00,,,-99.99,perl,2013-05-10 09:53:00,
2013-05-10 05:58:00,53.6,51.8,29.91,West,269,0.0,0.0,93,0.00,,,-99.99,perl,2013-05-10 09:58:00,
2013-05-10 06:04:00,53.6,51.8,29.91,West,269,0.0,0.0,93,0.00,,,-99.99,perl,2013-05-10 10:04:00,
2013-05-10 06:09:00,53.4,51.8,29.91,West,269,0.0,0.0,94,0.00,,,-99.99,perl,2013-05-10 10:09:00,
2013-05-10 06:14:00,53.4,51.8,29.91,West,270,0.0,0.0,94,0.00,,,-99.99,perl,2013-05-10 10:14:00,
2013-05-10 06:19:00,53.6,51.8,29.91,West,270,0.0,0.0,93,0.00,,,-99.99,perl,2013-05-10 10:19:00,
2013-05-10 06:24:00,53.6,51.8,29.91,West,269,0.0,0.0,93,0.00,,,-99.99,perl,2013-05-10 10:24:00,
2013-05-10 06:30:00,53.8,51.8,29.91,West,269,0.0,0.0,92,0.00,,,-99.99,perl,2013-05-10 10:30:00,
2013-05-10 06:35:00,53.8,51.8,29.91,West,270,0.0,0.0,92,0.00,,,-99.99,perl,2013-05-10 10:35:00,
2013-05-10 06:40:00,54.0,51.8,29.91,West,269,0.0,0.0,92,0.00,,,-99.99,perl,2013-05-10 10:40:00,
2013-05-10 06:45:00,54.0,51.8,29.91,West,269,0.0,0.0,92,0.00,,,-99.99,perl,2013-05-10 10:45:00,
2013-05-10 06:50:00,54.1,51.8,29.91,West,270,0.0,0.0,92,0.00,,,-99.99,perl,2013-05-10 10:50:00,
2013-05-10 06:55:00,54.3,51.8,29.91,West,269,0.0,0.0,91,0.00,,,-99.99,perl,2013-05-10 10:55:00,
2013-05-10 07:01:00,54.5,53.6,29.91,West,269,0.0,0.0,97,0.00,,,-99.99,perl,2013-05-10 11:01:00,
2013-05-10 07:07:00,54.5,53.6,29.91,West,269,0.0,0.0,97,0.00,,,-99.99,perl,2013-05-10 11:07:00,
2013-05-10 07:12:00,54.5,53.6,29.91,West,269,0.0,0.0,97,0.00,,,-99.99,perl,2013-05-10 11:12:00,
2013-05-10 07:17:00,54.7,53.6,29.91,West,270,0.0,0.0,96,0.00,,,-99.99,perl,2013-05-10 11:17:00,
2013-05-10 07:22:00,54.9,53.6,29.91,West,270,0.0,0.0,96,0.00,,,-99.99,perl,2013-05-10 11:22:00,
2013-05-10 07:27:00,55.2,53.6,29.91,West,270,0.0,0.0,95,0.00,,,-99.99,perl,2013-05-10 11:27:00,
2013-05-10 07:32:00,55.6,53.6,29.91,South,173,0.0,0.0,93,0.00,,,-99.99,perl,2013-05-10 11:32:00,
2013-05-10 07:37:00,55.9,53.6,29.91,SSE,149,0.0,0.0,92,0.00,,,-99.99,perl,2013-05-10 11:37:00,
2013-05-10 07:42:00,56.3,55.4,29.91,SSE,149,0.0,0.0,97,0.00,,,-99.99,perl,2013-05-10 11:42:00,
2013-05-10 07:47:00,56.8,55.4,29.91,SSE,150,0.0,0.0,96,0.00,,,-99.99,perl,2013-05-10 11:47:00,
2013-05-10 07:52:00,57.4,55.4,29.91,SSE,150,0.0,0.0,93,0.00,,,-99.99,perl,2013-05-10 11:52:00,
2013-05-10 07:57:00,57.9,55.4,29.91,SSE,149,0.0,0.0,92,0.00,,,-99.99,perl,2013-05-10 11:57:00,
2013-05-10 08:02:00,58.5,59.0,29.91,SSE,150,0.0,0.0,100,0.00,,,-99.99,perl,2013-05-10 12:02:00,
2013-05-10 08:07:00,59.0,57.2,29.91,SSE,150,0.0,0.0,94,0.00,,,-99.99,perl,2013-05-10 12:07:00,
2013-05-10 08:12:00,59.5,57.2,29.91,SSE,150,0.0,0.0,93,0.00,,,-99.99,perl,2013-05-10 12:12:00,
2013-05-10 08:17:00,59.7,57.2,29.91,SSE,150,0.0,0.0,92,0.00,,,-99.99,perl,2013-05-10 12:17:00,
2013-05-10 08:22:00,59.9,59.0,29.91,SSE,150,0.0,0.0,97,0.00,,,-99.99,perl,2013-05-10 12:22:00,
2013-05-10 08:27:00,60.4,59.0,29.91,West,267,0.0,0.0,96,0.00,,,-99.99,perl,2013-05-10 12:27:00,
2013-05-10 08:32:00,60.6,59.0,29.91,West,267,0.0,0.0,95,0.00,,,-99.99,perl,2013-05-10 12:32:00,
2013-05-10 08:37:00,61.0,59.0,29.91,West,267,0.0,0.0,93,0.00,,,-99.99,perl,2013-05-10 12:37:00,
2013-05-10 08:42:00,61.3,59.0,29.91,West,261,0.0,0.0,93,0.00,,,-99.99,perl,2013-05-10 12:42:00,
2013-05-10 08:47:00,61.7,60.8,29.91,West,260,0.0,0.0,97,0.00,,,-99.99,perl,2013-05-10 12:47:00,
2013-05-10 08:52:00,62.1,60.8,29.91,West,260,0.0,0.0,96,0.00,,,-99.99,perl,2013-05-10 12:52:00,
2013-05-10 08:58:00,62.1,59.0,29.91,West,261,0.0,0.0,90,0.00,,,-99.99,perl,2013-05-10 12:58:00,
2013-05-10 09:04:00,62.8,57.2,29.91,West,274,0.0,0.0,82,0.00,,,-99.99,perl,2013-05-10 13:04:00,
2013-05-10 09:09:00,63.5,60.8,29.91,West,265,0.0,0.0,91,0.00,,,-99.99,perl,2013-05-10 13:09:00,
2013-05-10 09:14:00,63.9,59.0,29.91,East,93,0.0,0.0,84,0.00,,,-99.99,perl,2013-05-10 13:14:00,
2013-05-10 09:19:00,63.9,59.0,29.91,ESE,114,0.0,0.0,84,0.00,,,-99.99,perl,2013-05-10 13:19:00,
2013-05-10 09:24:00,64.2,59.0,29.91,East,96,0.0,0.0,84,0.00,,,-99.99,perl,2013-05-10 13:24:00,
2013-05-10 09:29:00,64.4,57.2,29.91,ESE,108,0.0,0.0,77,0.00,,,-99.99,perl,2013-05-10 13:29:00,
2013-05-10 09:35:00,64.9,57.2,29.88,ESE,108,0.0,0.0,77,0.00,,,-99.99,perl,2013-05-10 13:35:00,
2013-05-10 09:40:00,65.1,57.2,29.88,ESE,107,0.0,0.0,76,0.00,,,-99.99,perl,2013-05-10 13:40:00,
2013-05-10 09:46:00,65.5,59.0,29.88,ESE,107,0.0,0.0,80,0.00,,,-99.99,perl,2013-05-10 13:46:00,
2013-05-10 09:51:00,65.7,57.2,29.88,East,96,0.0,0.0,74,0.00,,,-99.99,perl,2013-05-10 13:51:00,
2013-05-10 09:56:00,65.7,57.2,29.88,SE,142,0.0,0.0,74,0.00,,,-99.99,perl,2013-05-10 13:56:00,
2013-05-10 10:01:00,65.8,57.2,29.88,SE,127,0.0,0.0,74,0.00,,,-99.99,perl,2013-05-10 14:01:00,
2013-05-10 10:06:00,65.8,55.4,29.88,ESE,114,0.0,0.0,69,0.00,,,-99.99,perl,2013-05-10 14:06:00,
2013-05-10 10:12:00,66.0,53.6,29.88,ESE,106,0.0,0.0,65,0.00,,,-99.99,perl,2013-05-10 14:12:00,
2013-05-10 10:17:00,66.0,53.6,29.88,ESE,107,0.0,0.0,65,0.00,,,-99.99,perl,2013-05-10 14:17:00,
2013-05-10 10:22:00,66.0,53.6,29.88,ENE,75,0.0,0.0,65,0.00,,,-99.99,perl,2013-05-10 14:22:00,
2013-05-10 10:27:00,66.2,51.8,29.88,ENE,74,0.0,0.0,59,0.00,,,-99.99,perl,2013-05-10 14:27:00,
2013-05-10 10:32:00,66.4,51.8,29.88,ENE,75,0.0,0.0,59,0.00,,,-99.99,perl,2013-05-10 14:32:00,
2013-05-10 10:37:00,66.6,51.8,29.88,ENE,75,0.0,0.0,59,0.00,,,-99.99,perl,2013-05-10 14:37:00,
2013-05-10 10:42:00,66.7,51.8,29.88,ENE,75,0.0,0.0,59,0.00,,,-99.99,perl,2013-05-10 14:42:00,
2013-05-10 10:47:00,66.9,51.8,29.88,ENE,74,0.0,0.0,58,0.00,,,-99.99,perl,2013-05-10 14:47:00,
2013-05-10 10:52:00,66.9,50.0,29.88,ENE,75,0.0,0.0,55,0.00,,,-99.99,perl,2013-05-10 14:52:00,
2013-05-10 10:57:00,67.1,51.8,29.88,ENE,75,0.0,0.0,58,0.00,,,-99.99,perl,2013-05-10 14:57:00,
2013-05-10 11:02:00,67.1,51.8,29.88,WSW,258,0.0,0.0,58,0.00,,,-99.99,perl,2013-05-10 15:02:00,
2013-05-10 11:07:00,66.9,50.0,29.88,WSW,251,0.0,0.0,55,0.00,,,-99.99,perl,2013-05-10 15:07:00,
2013-05-10 11:12:00,66.7,51.8,29.88,WSW,254,4.0,5.4,59,0.00,,,-99.99,perl,2013-05-10 15:12:00,
2013-05-10 11:17:00,66.2,51.8,29.88,WNW,286,3.4,6.3,59,0.00,,,-99.99,perl,2013-05-10 15:17:00,
2013-05-10 11:22:00,65.3,53.6,29.88,WSW,253,3.0,3.1,66,0.00,,,-99.99,perl,2013-05-10 15:22:00,
2013-05-10 11:27:00,64.6,53.6,29.88,West,263,2.4,3.6,68,0.00,,,-99.99,perl,2013-05-10 15:27:00,
2013-05-10 11:32:00,64.2,53.6,29.91,West,281,0.0,3.1,69,0.00,,,-99.99,perl,2013-05-10 15:32:00,
2013-05-10 11:37:00,63.3,53.6,29.91,WNW,301,0.0,4.0,71,0.00,,,-99.99,perl,2013-05-10 15:37:00,
2013-05-10 11:42:00,62.4,53.6,29.91,WNW,295,2.4,2.7,73,0.00,,,-99.99,perl,2013-05-10 15:42:00,
2013-05-10 11:47:00,61.3,51.8,29.88,WNW,293,0.0,0.0,71,0.00,,,-99.99,perl,2013-05-10 15:47:00,
2013-05-10 11:52:00,61.2,51.8,29.88,WNW,294,0.0,0.0,71,0.00,,,-99.99,perl,2013-05-10 15:52:00,
2013-05-10 11:57:00,60.8,51.8,29.88,WNW,293,0.0,0.0,72,0.00,,,-99.99,perl,2013-05-10 15:57:00,
2013-05-10 12:03:00,60.6,51.8,29.88,WNW,293,0.0,0.0,73,0.00,,,-99.99,perl,2013-05-10 16:03:00,
2013-05-10 12:08:00,60.4,53.6,29.88,WNW,293,0.0,0.0,79,0.00,,,-99.99,perl,2013-05-10 16:08:00,
2013-05-10 12:13:00,60.4,53.6,29.88,WNW,294,0.0,0.0,79,0.00,,,-99.99,perl,2013-05-10 16:13:00,
2013-05-10 12:18:00,60.6,53.6,29.88,WNW,294,0.0,0.0,78,0.00,,,-99.99,perl,2013-05-10 16:18:00,
2013-05-10 12:24:00,60.8,55.4,29.88,WNW,294,0.0,0.0,82,0.00,,,-99.99,perl,2013-05-10 16:24:00,
2013-05-10 12:29:00,61.0,55.4,29.88,WNW,294,0.0,0.0,82,0.00,,,-99.99,perl,2013-05-10 16:29:00,
2013-05-10 12:35:00,60.8,55.4,29.88,WNW,293,0.0,0.0,82,0.00,,,-99.99,perl,2013-05-10 16:35:00,
2013-05-10 12:41:00,61.0,55.4,29.88,WNW,293,0.0,0.0,82,0.00,,,-99.99,perl,2013-05-10 16:41:00,
2013-05-10 12:46:00,61.0,55.4,29.88,SSW,198,0.0,0.0,82,0.00,,,-99.99,perl,2013-05-10 16:46:00,
2013-05-10 12:51:00,60.8,55.4,29.88,East,85,0.0,0.0,82,0.00,,,-99.99,perl,2013-05-10 16:51:00,
2013-05-10 12:56:00,60.6,55.4,29.88,ESE,104,0.0,0.0,83,0.00,,,-99.99,perl,2013-05-10 16:56:00,
2013-05-10 13:02:00,60.8,55.4,29.85,East,94,0.0,0.0,82,0.00,,,-99.99,perl,2013-05-10 17:02:00,
2013-05-10 13:07:00,61.2,55.4,29.85,SE,135,3.1,4.0,81,0.00,,,-99.99,perl,2013-05-10 17:07:00,
2013-05-10 13:12:00,61.9,59.0,29.85,East,91,0.0,0.0,90,0.00,,,-99.99,perl,2013-05-10 17:12:00,
2013-05-10 13:17:00,62.4,59.0,29.85,ESE,102,1.0,0.0,89,0.00,,,-99.99,perl,2013-05-10 17:17:00,
2013-05-10 13:22:00,63.3,60.8,29.85,East,99,2.9,4.9,92,0.00,,,-99.99,perl,2013-05-10 17:22:00,
2013-05-10 13:27:00,63.9,62.6,29.85,ESE,112,2.3,3.6,96,0.00,,,-99.99,perl,2013-05-10 17:27:00,
2013-05-10 13:32:00,64.9,62.6,29.82,ESE,102,0.0,0.0,93,0.00,,,-99.99,perl,2013-05-10 17:32:00,
2013-05-10 13:37:00,65.8,62.6,29.82,ESE,121,0.0,5.8,90,0.00,,,-99.99,perl,2013-05-10 17:37:00,
2013-05-10 13:42:00,66.2,60.8,29.82,East,93,3.4,4.0,83,0.00,,,-99.99,perl,2013-05-10 17:42:00,
2013-05-10 13:47:00,66.9,60.8,29.82,SSE,147,0.0,2.2,81,0.00,,,-99.99,perl,2013-05-10 17:47:00,
2013-05-10 13:52:00,67.8,62.6,29.82,ESE,121,0.0,0.0,84,0.00,,,-99.99,perl,2013-05-10 17:52:00,
2013-05-10 13:57:00,68.2,59.0,29.82,SE,145,3.1,3.6,73,0.00,,,-99.99,perl,2013-05-10 17:57:00,
2013-05-10 14:02:00,68.5,55.4,29.82,East,84,3.2,3.6,63,0.00,,,-99.99,perl,2013-05-10 18:02:00,
2013-05-10 14:07:00,68.7,55.4,29.82,SE,145,0.8,0.0,63,0.00,,,-99.99,perl,2013-05-10 18:07:00,
2013-05-10 14:12:00,68.9,57.2,29.82,ENE,67,3.0,4.5,66,0.00,,,-99.99,perl,2013-05-10 18:12:00,
2013-05-10 14:17:00,68.7,53.6,29.82,East,93,0.9,0.0,59,0.00,,,-99.99,perl,2013-05-10 18:17:00,
2013-05-10 14:22:00,68.7,53.6,29.82,SSE,165,0.0,2.7,59,0.00,,,-99.99,perl,2013-05-10 18:22:00,
2013-05-10 14:27:00,68.7,55.4,29.82,East,100,0.0,0.0,63,0.00,,,-99.99,perl,2013-05-10 18:27:00,
2013-05-10 14:32:00,68.5,55.4,29.82,ENE,75,1.3,4.0,63,0.00,,,-99.99,perl,2013-05-10 18:32:00,
2013-05-10 14:37:00,68.4,53.6,29.82,ESE,104,0.0,3.6,59,0.00,,,-99.99,perl,2013-05-10 18:37:00,
2013-05-10 14:42:00,68.4,55.4,29.82,SE,125,0.0,0.0,63,0.00,,,-99.99,perl,2013-05-10 18:42:00,
2013-05-10 14:47:00,68.4,55.4,29.79,East,95,0.0,0.0,63,0.00,,,-99.99,perl,2013-05-10 18:47:00,
2013-05-10 14:52:00,68.4,55.4,29.79,ESE,110,1.6,0.0,63,0.00,,,-99.99,perl,2013-05-10 18:52:00,
2013-05-10 14:58:00,68.4,55.4,29.79,East,98,0.0,4.0,63,0.00,,,-99.99,perl,2013-05-10 18:58:00,
2013-05-10 15:03:00,68.4,55.4,29.79,ESE,107,0.0,0.0,63,0.00,,,-99.99,perl,2013-05-10 19:03:00,
2013-05-10 15:08:00,68.4,55.4,29.79,East,93,0.0,0.0,63,0.00,,,-99.99,perl,2013-05-10 19:08:00,
2013-05-10 15:14:00,68.5,55.4,29.79,ESE,107,3.3,5.4,63,0.00,,,-99.99,perl,2013-05-10 19:14:00,
2013-05-10 15:19:00,68.9,57.2,29.79,East,84,2.8,4.0,66,0.00,,,-99.99,perl,2013-05-10 19:19:00,
2013-05-10 15:24:00,69.3,57.2,29.79,ESE,112,1.3,5.8,66,0.00,,,-99.99,perl,2013-05-10 19:24:00,
2013-05-10 15:29:00,69.4,57.2,29.76,SE,128,0.0,0.0,66,0.00,,,-99.99,perl,2013-05-10 19:29:00,
2013-05-10 15:34:00,70.0,57.2,29.76,SE,128,0.0,0.0,64,0.00,,,-99.99,perl,2013-05-10 19:34:00,
2013-05-10 15:39:00,70.5,57.2,29.76,East,86,3.7,4.9,63,0.00,,,-99.99,perl,2013-05-10 19:39:00,
2013-05-10 15:45:00,71.1,59.0,29.76,SSW,202,2.8,4.0,66,0.00,,,-99.99,perl,2013-05-10 19:45:00,
2013-05-10 15:50:00,71.8,59.0,29.76,East,83,0.0,0.0,64,0.00,,,-99.99,perl,2013-05-10 19:50:00,
2013-05-10 15:55:00,72.5,59.0,29.76,East,100,0.0,0.0,63,0.00,,,-99.99,perl,2013-05-10 19:55:00,
2013-05-10 16:01:00,72.7,57.2,29.76,East,82,2.7,5.8,58,0.00,,,-99.99,perl,2013-05-10 20:01:00,
2013-05-10 16:06:00,72.7,57.2,29.76,ENE,74,0.0,3.1,58,0.00,,,-99.99,perl,2013-05-10 20:06:00,
2013-05-10 16:11:00,73.2,57.2,29.76,SSE,153,0.0,0.0,58,0.00,,,-99.99,perl,2013-05-10 20:11:00,
2013-05-10 16:16:00,73.4,55.4,29.73,ENE,72,1.7,4.0,53,0.00,,,-99.99,perl,2013-05-10 20:16:00,
2013-05-10 16:22:00,73.6,53.6,29.73,West,272,0.0,0.0,50,0.00,,,-99.99,perl,2013-05-10 20:22:00,
2013-05-10 16:27:00,73.8,53.6,29.73,WSW,237,2.1,3.6,49,0.00,,,-99.99,perl,2013-05-10 20:27:00,
2013-05-10 16:32:00,73.8,55.4,29.73,SW,221,0.0,0.0,53,0.00,,,-99.99,perl,2013-05-10 20:32:00,
2013-05-10 16:37:00,73.6,53.6,29.73,West,274,0.7,0.0,50,0.00,,,-99.99,perl,2013-05-10 20:37:00,
2013-05-10 16:42:00,73.6,51.8,29.73,South,175,0.0,0.0,46,0.00,,,-99.99,perl,2013-05-10 20:42:00,
2013-05-10 16:47:00,73.0,55.4,29.73,West,276,0.0,0.0,54,0.00,,,-99.99,perl,2013-05-10 20:47:00,
2013-05-10 16:52:00,72.0,53.6,29.73,NW,318,0.0,0.0,52,0.00,,,-99.99,perl,2013-05-10 20:52:00,
2013-05-10 16:57:00,70.9,57.2,29.73,NW,318,0.0,0.0,62,0.00,,,-99.99,perl,2013-05-10 20:57:00,
2013-05-10 17:02:00,70.0,55.4,29.73,NW,317,0.0,0.0,60,0.00,,,-99.99,perl,2013-05-10 21:02:00,
2013-05-10 17:07:00,69.1,57.2,29.73,NW,318,0.0,0.0,66,0.00,,,-99.99,perl,2013-05-10 21:07:00,
2013-05-10 17:12:00,68.4,59.0,29.73,WSW,252,0.0,0.0,72,0.00,,,-99.99,perl,2013-05-10 21:12:00,
2013-05-10 17:17:00,67.8,60.8,29.73,WSW,252,0.0,0.0,79,0.00,,,-99.99,perl,2013-05-10 21:17:00,
2013-05-10 17:22:00,67.3,60.8,29.73,NW,311,0.0,0.0,80,0.00,,,-99.99,perl,2013-05-10 21:22:00,
2013-05-10 17:27:00,67.1,62.6,29.73,NW,311,0.0,0.0,86,0.00,,,-99.99,perl,2013-05-10 21:27:00,
2013-05-10 17:32:00,66.9,60.8,29.73,NW,311,0.0,0.0,81,0.00,,,-99.99,perl,2013-05-10 21:32:00,
2013-05-10 17:37:00,66.9,60.8,29.73,NW,311,0.0,0.0,81,0.00,,,-99.99,perl,2013-05-10 21:37:00,
2013-05-10 17:42:00,66.7,60.8,29.73,NW,311,0.0,0.0,82,0.00,,,-99.99,perl,2013-05-10 21:42:00,
2013-05-10 17:47:00,66.6,60.8,29.73,NW,311,0.0,0.0,82,0.00,,,-99.99,perl,2013-05-10 21:47:00,
2013-05-10 17:52:00,66.4,62.6,29.73,NW,311,0.0,0.0,88,0.04,,,-99.99,perl,2013-05-10 21:52:00,
2013-05-10 17:59:00,66.2,62.6,29.73,NW,314,0.0,0.0,88,0.00,,,-99.99,perl,2013-05-10 21:59:00,
2013-05-10 18:00:00,66.2,62.6,29.73,NW,318,0.0,0.0,88,0.00,,,-99.99,perl,2013-05-10 22:00:00,
2013-05-10 18:01:00,66.2,62.6,29.73,NW,318,0.0,0.0,88,0.00,,,-99.99,perl,2013-05-10 22:01:00,
2013-05-10 18:04:00,66.0,62.6,29.73,NW,314,0.0,0.0,89,0.00,,,-99.99,perl,2013-05-10 22:04:00,
2013-05-10 18:09:00,65.8,62.6,29.73,WSW,255,0.0,0.0,90,0.00,,,-99.99,perl,2013-05-10 22:09:00,
2013-05-10 18:14:00,65.7,64.4,29.73,West,264,2.7,4.9,96,0.00,,,-99.99,perl,2013-05-10 22:14:00,
2013-05-10 18:19:00,64.4,62.6,29.76,WSW,242,5.1,5.8,94,0.00,,,-99.99,perl,2013-05-10 22:19:00,
2013-05-10 18:24:00,63.7,60.8,29.76,NW,312,3.0,4.0,90,0.00,,,-99.99,perl,2013-05-10 22:24:00,
2013-05-10 18:29:00,63.1,59.0,29.73,NE,49,0.0,0.0,87,0.00,,,-99.99,perl,2013-05-10 22:29:00,
2013-05-10 18:34:00,63.0,59.0,29.73,NE,52,0.0,0.0,87,0.00,,,-99.99,perl,2013-05-10 22:34:00,
2013-05-10 18:39:00,62.8,59.0,29.73,NE,52,0.0,0.0,87,0.00,,,-99.99,perl,2013-05-10 22:39:00,
2013-05-10 18:45:00,62.8,59.0,29.73,SSW,206,0.0,4.0,87,0.00,,,-99.99,perl,2013-05-10 22:45:00,
2013-05-10 18:50:00,62.6,60.8,29.73,ESE,110,1.7,3.6,94,0.00,,,-99.99,perl,2013-05-10 22:50:00,
2013-05-10 18:55:00,62.4,60.8,29.73,SSW,195,0.0,0.0,95,0.00,,,-99.99,perl,2013-05-10 22:55:00,
2013-05-10 19:00:00,62.2,60.8,29.73,ENE,64,0.0,0.0,96,0.00,,,-99.99,perl,2013-05-10 23:00:00,
2013-05-10 19:05:00,62.1,60.8,29.73,ENE,66,0.0,0.0,96,0.00,,,-99.99,perl,2013-05-10 23:05:00,
2013-05-10 19:10:00,62.1,60.8,29.73,West,260,0.0,0.0,96,0.00,,,-99.99,perl,2013-05-10 23:10:00,
2013-05-10 19:15:00,62.1,60.8,29.73,WSW,255,0.0,0.0,96,0.00,,,-99.99,perl,2013-05-10 23:15:00,
2013-05-10 19:20:00,62.1,60.8,29.73,WSW,255,0.0,0.0,96,0.00,,,-99.99,perl,2013-05-10 23:20:00,
2013-05-10 19:25:00,62.1,60.8,29.73,WSW,255,0.0,0.0,96,0.00,,,-99.99,perl,2013-05-10 23:25:00,
2013-05-10 19:30:00,62.2,60.8,29.73,WSW,255,0.0,0.0,96,0.00,,,-99.99,perl,2013-05-10 23:30:00,
2013-05-10 19:35:00,62.2,60.8,29.73,WSW,255,0.0,0.0,96,0.00,,,-99.99,perl,2013-05-10 23:35:00,
2013-05-10 19:40:00,62.2,60.8,29.73,WSW,256,0.0,0.0,96,0.00,,,-99.99,perl,2013-05-10 23:40:00,
2013-05-10 19:45:00,62.4,60.8,29.73,WSW,255,0.0,0.0,95,0.00,,,-99.99,perl,2013-05-10 23:45:00,
2013-05-10 19:50:00,62.6,60.8,29.73,WSW,255,0.0,0.0,94,0.00,,,-99.99,perl,2013-05-10 23:50:00,
2013-05-10 19:55:00,62.6,60.8,29.73,WSW,255,0.0,0.0,94,0.00,,,-99.99,perl,2013-05-10 23:55:00,
2013-05-10 20:00:00,62.8,60.8,29.73,WSW,255,0.0,0.0,93,0.00,,,-99.99,perl,2013-05-11 00:00:00,
2013-05-10 20:05:00,62.8,60.8,29.73,South,190,0.0,0.0,93,0.00,,,-99.99,perl,2013-05-11 00:05:00,
2013-05-10 20:10:00,63.0,60.8,29.73,SSW,203,0.0,0.0,93,0.00,,,-99.99,perl,2013-05-11 00:10:00,
2013-05-10 20:15:00,63.0,60.8,29.73,SSW,210,0.0,0.0,93,0.00,,,-99.99,perl,2013-05-11 00:15:00,
2013-05-10 20:21:00,62.8,60.8,29.73,SSW,211,0.0,0.0,93,0.00,,,-99.99,perl,2013-05-11 00:21:00,
2013-05-10 20:26:00,62.6,60.8,29.73,SW,233,0.0,0.0,94,0.00,,,-99.99,perl,2013-05-11 00:26:00,
2013-05-10 20:31:00,62.2,62.6,29.73,SW,220,0.0,3.6,100,0.00,,,-99.99,perl,2013-05-11 00:31:00,
2013-05-10 20:36:00,61.9,62.6,29.73,SW,216,0.0,2.2,100,0.00,,,-99.99,perl,2013-05-11 00:36:00,
2013-05-10 20:41:00,61.7,62.6,29.73,WSW,245,0.0,0.0,100,0.00,,,-99.99,perl,2013-05-11 00:41:00,
2013-05-10 20:46:00,61.3,60.8,29.73,SSW,196,1.5,3.1,99,0.00,,,-99.99,perl,2013-05-11 00:46:00,
2013-05-10 20:51:00,61.2,60.8,29.73,SW,224,0.0,0.0,99,0.00,,,-99.99,perl,2013-05-11 00:51:00,
2013-05-10 20:56:00,61.0,60.8,29.73,South,171,0.0,0.0,99,0.00,,,-99.99,perl,2013-05-11 00:56:00,
2013-05-10 21:01:00,60.8,60.8,29.73,SE,140,0.0,0.0,100,0.00,,,-99.99,perl,2013-05-11 01:01:00,
2013-05-10 21:06:00,60.6,60.8,29.73,West,264,2.0,0.0,100,0.00,,,-99.99,perl,2013-05-11 01:06:00,
2013-05-10 21:11:00,60.4,60.8,29.73,West,267,0.0,0.0,100,0.00,,,-99.99,perl,2013-05-11 01:11:00,
2013-05-10 21:16:00,60.4,60.8,29.73,West,269,0.0,0.0,100,0.00,,,-99.99,perl,2013-05-11 01:16:00,
2013-05-10 21:21:00,60.4,60.8,29.73,WSW,254,0.0,0.0,100,0.00,,,-99.99,perl,2013-05-11 01:21:00,
2013-05-10 21:26:00,60.3,60.8,29.73,West,276,0.0,0.0,100,0.00,,,-99.99,perl,2013-05-11 01:26:00,
2013-05-10 21:31:00,60.3,60.8,29.73,West,275,0.0,0.0,100,0.00,,,-99.99,perl,2013-05-11 01:31:00,
2013-05-10 21:36:00,60.3,60.8,29.73,SW,228,0.0,0.0,100,0.00,,,-99.99,perl,2013-05-11 01:36:00,
2013-05-10 21:41:00,60.3,60.8,29.73,SW,228,0.0,0.0,100,0.00,,,-99.99,perl,2013-05-11 01:41:00,
2013-05-10 21:46:00,60.3,60.8,29.73,West,262,0.0,0.0,100,0.00,,,-99.99,perl,2013-05-11 01:46:00,
2013-05-10 21:51:00,60.1,60.8,29.73,West,267,0.0,0.0,100,0.00,,,-99.99,perl,2013-05-11 01:51:00,
2013-05-10 21:56:00,60.3,60.8,29.73,West,268,0.0,0.0,100,0.00,,,-99.99,perl,2013-05-11 01:56:00,
2013-05-10 22:01:00,60.1,60.8,29.73,West,268,0.0,0.0,100,0.00,,,-99.99,perl,2013-05-11 02:01:00,
2013-05-10 22:06:00,60.1,60.8,29.73,West,268,0.0,0.0,100,0.00,,,-99.99,perl,2013-05-11 02:06:00,
2013-05-10 22:11:00,60.1,60.8,29.73,SSW,204,1.1,0.0,100,0.00,,,-99.99,perl,2013-05-11 02:11:00,
2013-05-10 22:16:00,60.1,60.8,29.73,West,260,2.2,5.4,100,0.00,,,-99.99,perl,2013-05-11 02:16:00,
2013-05-10 22:21:00,60.1,60.8,29.73,WSW,245,0.0,0.0,100,0.00,,,-99.99,perl,2013-05-11 02:21:00,
2013-05-10 22:26:00,60.1,60.8,29.73,WSW,245,0.0,0.0,100,0.00,,,-99.99,perl,2013-05-11 02:26:00,
2013-05-10 22:32:00,60.1,60.8,29.73,WNW,299,0.0,3.1,100,0.00,,,-99.99,perl,2013-05-11 02:32:00,
2013-05-10 22:37:00,60.1,60.8,29.73,NW,316,0.0,0.0,100,0.00,,,-99.99,perl,2013-05-11 02:37:00,
2013-05-10 22:42:00,60.1,60.8,29.73,West,271,0.0,0.0,100,0.00,,,-99.99,perl,2013-05-11 02:42:00,
2013-05-10 22:48:00,60.1,60.8,29.70,WNW,301,0.0,0.0,100,0.00,,,-99.99,perl,2013-05-11 02:48:00,
2013-05-10 22:53:00,60.1,60.8,29.70,NNW,341,0.0,0.0,100,0.00,,,-99.99,perl,2013-05-11 02:53:00,
2013-05-10 22:58:00,60.1,60.8,29.70,WSW,250,0.0,0.0,100,0.00,,,-99.99,perl,2013-05-11 02:58:00,
2013-05-10 23:03:00,60.1,60.8,29.70,WSW,248,0.0,0.0,100,0.00,,,-99.99,perl,2013-05-11 03:03:00,
2013-05-10 23:09:00,60.1,60.8,29.70,WSW,251,0.0,0.0,100,0.00,,,-99.99,perl,2013-05-11 03:09:00,
2013-05-10 23:14:00,60.1,60.8,29.70,WSW,251,0.0,0.0,100,0.00,,,-99.99,perl,2013-05-11 03:14:00,
2013-05-10 23:19:00,60.1,60.8,29.70,NW,317,0.0,0.0,100,0.00,,,-99.99,perl,2013-05-11 03:19:00,
2013-05-10 23:24:00,60.1,60.8,29.70,NW,316,0.0,0.0,100,0.00,,,-99.99,perl,2013-05-11 03:24:00,
2013-05-10 23:29:00,60.1,60.8,29.70,NW,317,0.0,0.0,100,0.00,,,-99.99,perl,2013-05-11 03:29:00,
2013-05-10 23:34:00,60.1,60.8,29.70,NW,317,0.0,0.0,100,0.00,,,-99.99,perl,2013-05-11 03:34:00,
2013-05-10 23:39:00,60.1,60.8,29.70,WSW,257,0.0,0.0,100,0.00,,,-99.99,perl,2013-05-11 03:39:00,
2013-05-10 23:44:00,60.1,60.8,29.70,WSW,240,0.0,0.0,100,0.00,,,-99.99,perl,2013-05-11 03:44:00,
2013-05-10 23:49:00,60.1,60.8,29.70,SW,234,0.0,0.0,100,0.00,,,-99.99,perl,2013-05-11 03:49:00,
2013-05-10 23:54:00,60.1,60.8,29.70,SW,234,0.0,0.0,100,0.00,,,-99.99,perl,2013-05-11 03:54:00,
2013-05-10 23:59:00,60.1,60.8,29.70,WSW,257,0.0,0.0,100,0.00,,,-99.99,perl,2013-05-11 03:59:00,